Time,TemperatureF,DewpointF,PressureIn,WindDirection,WindDirectionDegrees,WindSpeedMPH,WindSpeedGustMPH,Humidity,HourlyPrecipIn,Conditions,Clouds,dailyrainin,SolarRadiationWatts/m^2,SoftwareType,DateUTC
2013-09-08 00:00:00,55.0,53.0,-100.00,ENE,59,1.0,3.0,93,0.00,,,0.00,0.000000,,2013-09-08 05:00:00,
2013-09-08 00:23:00,55.0,53.0,-100.00,ENE,59,1.0,3.0,93,0.00,,,0.00,0.000000,,2013-09-08 05:23:00,
2013-09-08 00:34:00,55.0,53.0,-100.00,ENE,59,1.0,3.0,93,0.00,,,0.00,0.000000,,2013-09-08 05:34:00,
2013-09-08 00:43:00,55.0,53.0,-100.00,ENE,59,1.0,3.0,93,0.00,,,0.00,0.000000,,2013-09-08 05:43:00,
2013-09-08 00:52:00,55.0,53.0,-100.00,ENE,59,1.0,3.0,93,0.00,,,0.00,0.000000,,2013-09-08 05:52:00,
2013-09-08 01:00:00,53.0,51.0,-100.00,NE,54,2.0,3.0,94,0.00,,,0.00,0.000000,,2013-09-08 06:00:00,
2013-09-08 01:22:00,53.0,51.0,-100.00,NE,54,2.0,3.0,94,0.00,,,0.00,0.000000,,2013-09-08 06:22:00,
2013-09-08 01:33:00,53.0,51.0,-100.00,NE,54,2.0,3.0,94,0.00,,,0.00,0.000000,,2013-09-08 06:33:00,
2013-09-08 01:42:00,53.0,51.0,-100.00,NE,54,2.0,3.0,94,0.00,,,0.00,0.000000,,2013-09-08 06:42:00,
2013-09-08 01:53:00,53.0,51.0,-100.00,NE,54,2.0,3.0,94,0.00,,,0.00,0.000000,,2013-09-08 06:53:00,
2013-09-08 02:00:00,51.0,49.0,-100.00,NE,49,2.0,4.0,92,0.00,,,0.00,0.000000,,2013-09-08 07:00:00,
2013-09-08 02:42:00,51.0,49.0,-100.00,NE,49,2.0,4.0,92,0.00,,,0.00,0.000000,,2013-09-08 07:42:00,
2013-09-08 02:52:00,51.0,49.0,-100.00,NE,49,2.0,4.0,92,0.00,,,0.00,0.000000,,2013-09-08 07:52:00,
2013-09-08 03:00:00,48.0,46.0,-100.00,NW,326,1.0,2.0,94,0.00,,,0.00,0.000000,,2013-09-08 08:00:00,
2013-09-08 03:22:00,48.0,46.0,-100.00,NW,326,1.0,2.0,94,0.00,,,0.00,0.000000,,2013-09-08 08:22:00,
2013-09-08 03:32:00,48.0,46.0,-100.00,NW,326,1.0,2.0,94,0.00,,,0.00,0.000000,,2013-09-08 08:32:00,
2013-09-08 03:42:00,48.0,46.0,-100.00,NW,326,1.0,2.0,94,0.00,,,0.00,0.000000,,2013-09-08 08:42:00,
2013-09-08 03:52:00,48.0,46.0,-100.00,NW,326,1.0,2.0,94,0.00,,,0.00,0.000000,,2013-09-08 08:52:00,
2013-09-08 04:00:00,45.0,44.0,-100.00,NNE,31,0.0,0.0,95,0.00,,,0.00,0.000000,,2013-09-08 09:00:00,
2013-09-08 04:43:00,45.0,44.0,-100.00,NNE,31,0.0,0.0,95,0.00,,,0.00,0.000000,,2013-09-08 09:43:00,
2013-09-08 04:54:00,45.0,44.0,-100.00,NNE,31,0.0,0.0,95,0.00,,,0.00,0.000000,,2013-09-08 09:54:00,
2013-09-08 05:00:00,44.0,43.0,-100.00,NNE,31,0.0,3.0,95,0.00,,,0.00,0.000000,,2013-09-08 10:00:00,
2013-09-08 05:43:00,44.0,43.0,-100.00,NNE,31,0.0,3.0,95,0.00,,,0.00,0.000000,,2013-09-08 10:43:00,
2013-09-08 05:53:00,44.0,43.0,-100.00,NNE,31,0.0,3.0,95,0.00,,,0.00,0.000000,,2013-09-08 10:53:00,
2013-09-08 06:00:00,43.0,42.0,-100.00,East,96,0.0,3.0,95,0.00,,,0.00,0.000000,,2013-09-08 11:00:00,
2013-09-08 06:42:00,43.0,42.0,-100.00,East,96,0.0,3.0,95,0.00,,,0.00,0.000000,,2013-09-08 11:42:00,
2013-09-08 06:52:00,43.0,42.0,-100.00,East,96,0.0,3.0,95,0.00,,,0.00,0.000000,,2013-09-08 11:52:00,
2013-09-08 07:00:00,42.0,41.0,-100.00,NE,39,0.0,3.0,95,0.00,,,0.00,10.000000,,2013-09-08 12:00:00,
2013-09-08 07:22:00,42.0,41.0,-100.00,NE,39,0.0,3.0,95,0.00,,,0.00,10.000000,,2013-09-08 12:22:00,
2013-09-08 07:32:00,42.0,41.0,-100.00,NE,39,0.0,3.0,95,0.00,,,0.00,10.000000,,2013-09-08 12:32:00,
2013-09-08 07:42:00,42.0,41.0,-100.00,NE,39,0.0,3.0,95,0.00,,,0.00,10.000000,,2013-09-08 12:42:00,
2013-09-08 07:52:00,42.0,41.0,-100.00,NE,39,0.0,3.0,95,0.00,,,0.00,10.000000,,2013-09-08 12:52:00,
2013-09-08 08:00:00,52.0,49.0,-100.00,ENE,62,2.0,5.0,89,0.00,,,0.00,186.000000,,2013-09-08 13:00:00,
2013-09-08 08:42:00,52.0,49.0,-100.00,ENE,62,2.0,5.0,89,0.00,,,0.00,186.000000,,2013-09-08 13:42:00,
2013-09-08 08:52:00,52.0,49.0,-100.00,ENE,62,2.0,5.0,89,0.00,,,0.00,186.000000,,2013-09-08 13:52:00,
2013-09-08 09:00:00,59.0,52.0,-100.00,East,84,4.0,7.0,79,0.00,,,0.00,385.000000,,2013-09-08 14:00:00,
2013-09-08 09:42:00,59.0,52.0,-100.00,East,84,4.0,7.0,79,0.00,,,0.00,385.000000,,2013-09-08 14:42:00,
2013-09-08 09:52:00,59.0,52.0,-100.00,East,84,4.0,7.0,79,0.00,,,0.00,385.000000,,2013-09-08 14:52:00,
2013-09-08 10:00:00,64.0,52.0,-100.00,ESE,118,4.0,9.0,64,0.00,,,0.00,471.000000,,2013-09-08 15:00:00,
2013-09-08 10:23:00,64.0,52.0,-100.00,ESE,118,4.0,9.0,64,0.00,,,0.00,471.000000,,2013-09-08 15:23:00,
2013-09-08 10:34:00,64.0,52.0,-100.00,ESE,118,4.0,9.0,64,0.00,,,0.00,471.000000,,2013-09-08 15:34:00,
2013-09-08 10:45:00,64.0,52.0,-100.00,ESE,118,4.0,9.0,64,0.00,,,0.00,471.000000,,2013-09-08 15:45:00,
2013-09-08 10:55:00,64.0,52.0,-100.00,ESE,118,4.0,9.0,64,0.00,,,0.00,471.000000,,2013-09-08 15:55:00,
2013-09-08 11:00:00,66.0,48.0,-100.00,SE,128,6.0,14.0,52,0.00,,,0.00,617.000000,,2013-09-08 16:00:00,
2013-09-08 11:44:00,66.0,48.0,-100.00,SE,128,6.0,14.0,52,0.00,,,0.00,617.000000,,2013-09-08 16:44:00,
2013-09-08 11:53:00,66.0,48.0,-100.00,SE,128,6.0,14.0,52,0.00,,,0.00,617.000000,,2013-09-08 16:53:00,
2013-09-08 12:00:00,67.0,48.0,-100.00,SE,128,5.0,12.0,51,0.00,,,0.00,634.000000,,2013-09-08 17:00:00,
2013-09-08 12:43:00,67.0,48.0,-100.00,SE,128,5.0,12.0,51,0.00,,,0.00,634.000000,,2013-09-08 17:43:00,
2013-09-08 12:53:00,67.0,48.0,-100.00,SE,128,5.0,12.0,51,0.00,,,0.00,634.000000,,2013-09-08 17:53:00,
2013-09-08 13:00:00,68.0,49.0,-100.00,SE,138,4.0,11.0,50,0.00,,,0.00,451.000000,,2013-09-08 18:00:00,
2013-09-08 13:22:00,68.0,49.0,-100.00,SE,138,4.0,11.0,50,0.00,,,0.00,451.000000,,2013-09-08 18:22:00,
2013-09-08 13:32:00,68.0,49.0,-100.00,SE,138,4.0,11.0,50,0.00,,,0.00,451.000000,,2013-09-08 18:32:00,
2013-09-08 13:42:00,68.0,49.0,-100.00,SE,138,4.0,11.0,50,0.00,,,0.00,451.000000,,2013-09-08 18:42:00,
2013-09-08 13:52:00,68.0,49.0,-100.00,SE,138,4.0,11.0,50,0.00,,,0.00,451.000000,,2013-09-08 18:52:00,
2013-09-08 14:00:00,68.0,49.0,-100.00,ESE,104,4.0,9.0,50,0.00,,,0.00,493.000000,,2013-09-08 19:00:00,
2013-09-08 14:22:00,68.0,49.0,-100.00,ESE,104,4.0,9.0,50,0.00,,,0.00,493.000000,,2013-09-08 19:22:00,
2013-09-08 14:32:00,68.0,49.0,-100.00,ESE,104,4.0,9.0,50,0.00,,,0.00,493.000000,,2013-09-08 19:32:00,
2013-09-08 14:42:00,68.0,49.0,-100.00,ESE,104,4.0,9.0,50,0.00,,,0.00,493.000000,,2013-09-08 19:42:00,
2013-09-08 14:52:00,68.0,49.0,-100.00,ESE,104,4.0,9.0,50,0.00,,,0.00,493.000000,,2013-09-08 19:52:00,
2013-09-08 15:00:00,71.0,51.0,-100.00,ESE,119,4.0,10.0,50,0.00,,,0.00,522.000000,,2013-09-08 20:00:00,
2013-09-08 15:42:00,71.0,51.0,-100.00,ESE,119,4.0,10.0,50,0.00,,,0.00,522.000000,,2013-09-08 20:42:00,
2013-09-08 15:53:00,71.0,51.0,-100.00,ESE,119,4.0,10.0,50,0.00,,,0.00,522.000000,,2013-09-08 20:53:00,
2013-09-08 16:00:00,69.0,51.0,-100.00,ESE,121,3.0,9.0,52,0.00,,,0.00,376.000000,,2013-09-08 21:00:00,
2013-09-08 16:44:00,69.0,51.0,-100.00,ESE,121,3.0,9.0,52,0.00,,,0.00,376.000000,,2013-09-08 21:44:00,
2013-09-08 16:54:00,69.0,51.0,-100.00,ESE,121,3.0,9.0,52,0.00,,,0.00,376.000000,,2013-09-08 21:54:00,
2013-09-08 17:00:00,68.0,51.0,-100.00,SSE,148,2.0,8.0,55,0.00,,,0.00,235.000000,,2013-09-08 22:00:00,
2013-09-08 17:44:00,68.0,51.0,-100.00,SSE,148,2.0,8.0,55,0.00,,,0.00,235.000000,,2013-09-08 22:44:00,
2013-09-08 17:53:00,68.0,51.0,-100.00,SSE,148,2.0,8.0,55,0.00,,,0.00,235.000000,,2013-09-08 22:53:00,
2013-09-08 18:00:00,66.0,53.0,-100.00,SSE,159,1.0,5.0,63,0.00,,,0.00,92.000000,,2013-09-08 23:00:00,
2013-09-08 18:22:00,66.0,53.0,-100.00,SSE,159,1.0,5.0,63,0.00,,,0.00,92.000000,,2013-09-08 23:22:00,
2013-09-08 18:34:00,66.0,53.0,-100.00,SSE,159,1.0,5.0,63,0.00,,,0.00,92.000000,,2013-09-08 23:34:00,
2013-09-08 18:42:00,66.0,53.0,-100.00,SSE,159,1.0,5.0,63,0.00,,,0.00,92.000000,,2013-09-08 23:42:00,
2013-09-08 18:52:00,66.0,53.0,-100.00,SSE,159,1.0,5.0,63,0.00,,,0.00,92.000000,,2013-09-08 23:52:00,
2013-09-08 19:00:00,64.0,53.0,-100.00,SSE,160,0.0,4.0,68,0.00,,,0.00,34.000000,,2013-09-09 00:00:00,
2013-09-08 19:22:00,64.0,53.0,-100.00,SSE,160,0.0,4.0,68,0.00,,,0.00,34.000000,,2013-09-09 00:22:00,
2013-09-08 19:32:00,64.0,53.0,-100.00,SSE,160,0.0,4.0,68,0.00,,,0.00,34.000000,,2013-09-09 00:32:00,
2013-09-08 19:42:00,64.0,53.0,-100.00,SSE,160,0.0,4.0,68,0.00,,,0.00,34.000000,,2013-09-09 00:42:00,
2013-09-08 19:52:00,64.0,53.0,-100.00,SSE,160,0.0,4.0,68,0.00,,,0.00,34.000000,,2013-09-09 00:52:00,
2013-09-08 20:00:00,61.0,56.0,-100.00,ESE,120,0.0,2.0,83,0.00,,,0.00,4.000000,,2013-09-09 01:00:00,
2013-09-08 20:22:00,61.0,56.0,-100.00,ESE,120,0.0,2.0,83,0.00,,,0.00,4.000000,,2013-09-09 01:22:00,
2013-09-08 20:32:00,61.0,56.0,-100.00,ESE,120,0.0,2.0,83,0.00,,,0.00,4.000000,,2013-09-09 01:32:00,
2013-09-08 20:42:00,61.0,56.0,-100.00,ESE,120,0.0,2.0,83,0.00,,,0.00,4.000000,,2013-09-09 01:42:00,
2013-09-08 20:52:00,61.0,56.0,-100.00,ESE,120,0.0,2.0,83,0.00,,,0.00,4.000000,,2013-09-09 01:52:00,
2013-09-08 21:00:00,60.0,54.0,-100.00,SSE,149,1.0,3.0,80,0.00,,,0.00,0.000000,,2013-09-09 02:00:00,
2013-09-08 21:22:00,60.0,54.0,-100.00,SSE,149,1.0,3.0,80,0.00,,,0.00,0.000000,,2013-09-09 02:22:00,
2013-09-08 21:32:00,60.0,54.0,-100.00,SSE,149,1.0,3.0,80,0.00,,,0.00,0.000000,,2013-09-09 02:32:00,
2013-09-08 21:42:00,60.0,54.0,-100.00,SSE,149,1.0,3.0,80,0.00,,,0.00,0.000000,,2013-09-09 02:42:00,
2013-09-08 21:53:00,60.0,54.0,-100.00,SSE,149,1.0,3.0,80,0.00,,,0.00,0.000000,,2013-09-09 02:53:00,
2013-09-08 22:00:00,61.0,53.0,-100.00,SSE,159,2.0,6.0,75,0.00,,,0.00,0.000000,,2013-09-09 03:00:00,
2013-09-08 22:22:00,61.0,53.0,-100.00,SSE,159,2.0,6.0,75,0.00,,,0.00,0.000000,,2013-09-09 03:22:00,
2013-09-08 22:34:00,61.0,53.0,-100.00,SSE,159,2.0,6.0,75,0.00,,,0.00,0.000000,,2013-09-09 03:34:00,
2013-09-08 22:44:00,61.0,53.0,-100.00,SSE,159,2.0,6.0,75,0.00,,,0.00,0.000000,,2013-09-09 03:44:00,
2013-09-08 22:55:00,61.0,53.0,-100.00,SSE,159,2.0,6.0,75,0.00,,,0.00,0.000000,,2013-09-09 03:55:00,
2013-09-08 23:00:00,60.0,52.0,-100.00,SE,142,2.0,5.0,75,0.00,,,0.00,0.000000,,2013-09-09 04:00:00,
2013-09-08 23:43:00,60.0,52.0,-100.00,SE,142,2.0,5.0,75,0.00,,,0.00,0.000000,,2013-09-09 04:43:00,
2013-09-08 23:54:00,60.0,52.0,-100.00,SE,142,2.0,5.0,75,0.00,,,0.00,0.000000,,2013-09-09 04:54:00,